#timestamp,LO_Frequency,Hit,StdDev 
1621324915.7,286046986.4,P
1621324935.5,286046984.3,P
1621324955.4,286046984.2,P
1621324975.2,286046984.0,Y
1621324995.1,286047000.6,P
1621324996.0,286047000.6,N
1621325015.8,286047000.0,N
1621325035.6,286047000.8,N
1621325055.5,286046999.3,N
1621325075.3,286046998.8,N
1621325095.1,286046998.8,N
1621325115.9,286046999.4,N
1621325135.7,286046997.3,N
1621325155.6,286046996.5,N
1621325175.4,286046999.4,N
1621325195.2,286047000.4,N
1621325215.1,286046996.7,N
1621325216.0,286046996.7,N
1621325235.8,286046999.5,N
1621325255.7,286046999.1,N
1621325275.5,286046997.4,N
1621325295.3,286046997.2,N
1621325315.2,286046999.6,N
1621325335.0,286046999.4,N
1621325335.9,286046999.4,N
1621325355.8,286046999.5,N
1621325375.6,286046999.6,N
1621325395.4,286047001.0,N
1621325415.3,286046998.5,N
1621325435.1,286046997.3,N
1621325455.8,286046997.8,N
1621325475.7,286046995.3,N
1621325495.5,286046996.2,N
1621325515.3,286046995.5,N
1621325535.2,286046995.5,N
1621325555.0,286046993.3,Y
1621325555.9,286046993.3,P
1621325575.8,286046995.4,N
1621325595.6,286046995.6,N
1621325615.4,286046993.4,Y
1621325635.3,286046999.0,P
1621325655.1,286046996.6,N
1621325675.9,286046999.4,N
1621325695.7,286046998.7,N
1621325715.5,286046999.6,N
1621325735.4,286046999.0,N
1621325755.2,286046999.1,N
1621325775.0,286046996.5,N
1621325775.9,286046996.5,N
1621325795.8,286046999.1,N
1621325815.6,286046999.2,N
1621325835.5,286046998.7,N
1621325855.3,286047000.8,N
1621325875.1,286046999.3,N
1621325895.9,286046998.9,N
1621325915.7,286047001.2,N
1621325935.5,286046999.4,N
1621325955.4,286046999.0,N
1621325975.2,286046996.9,N
1621325995.1,286046998.4,N
1621325996.0,286046998.4,N
1621326015.8,286046998.8,N
1621326035.6,286046999.4,N
1621326055.5,286046996.9,N
1621326075.3,286047001.1,N
1621326095.2,286046998.7,N
1621326115.9,286047000.3,N
1621326135.7,286046999.0,N
1621326155.6,286046998.5,N
1621326175.4,286046998.5,N
1621326195.2,286046996.5,N
1621326215.1,286046997.3,N
1621326216.0,286046997.3,N
1621326235.8,286046999.6,N
1621326255.7,286046999.5,N
1621326275.5,286046996.5,N
1621326295.3,286046997.4,N
1621326315.2,286046997.7,N
1621326335.0,286046999.5,N
1621326335.9,286046999.5,N
1621326355.8,286046995.0,Y
1621326375.6,286046997.1,P
1621326395.4,286046997.6,N
1621326415.3,286046999.0,N
1621326435.1,286046999.6,N
1621326455.8,286046997.7,N
1621326475.7,286046998.0,N
1621326495.5,286046999.6,N
1621326515.4,286046999.6,N
1621326535.2,286046999.3,N
1621326555.0,286046996.7,Y
1621326555.9,286046996.7,P
1621326575.8,286046999.3,N
1621326595.6,286046998.9,N
1621326615.5,286046996.5,Y
1621326635.3,286046998.8,P
1621326655.1,286046999.0,P
1621326675.9,286046999.6,N
1621326695.7,286046998.4,Y
1621326715.5,286047001.9,P
1621326735.4,286047002.7,N
1621326755.2,286047000.0,N
1621326775.1,286046999.1,N
1621326776.0,286046999.1,N
1621326795.8,286046998.4,N
1621326815.6,286046998.9,N
1621326835.5,286046999.6,N
1621326855.3,286046998.8,N
1621326875.1,286046998.4,N
1621326895.9,286046999.0,N
1621326915.7,286046998.2,N
1621326935.6,286046998.3,N
1621326955.4,286046998.7,N
1621326975.2,286046998.4,N
1621326995.1,286046998.7,N
1621326996.0,286046998.7,N
1621327015.8,286046999.0,N
1621327035.6,286046999.4,N
1621327055.5,286046999.1,N
1621327075.3,286046996.7,Y
1621327095.2,286046998.6,P
1621327115.9,286046999.0,P
1621327135.7,286046998.9,P
1621327155.6,286046998.2,Y
1621327175.4,286046998.1,P
1621327195.3,286046997.0,P
1621327215.1,286046996.6,P
1621327216.0,286046996.6,Y
1621327235.8,286047000.0,P
1621327255.7,286047000.5,N
1621327275.5,286047000.0,N
1621327295.3,286047000.7,N
1621327315.2,286047000.0,N
1621327335.0,286047000.7,N
1621327335.9,286047000.7,N
1621327355.8,286047000.8,N
1621327375.6,286046998.9,N
1621327395.4,286047001.1,N
1621327415.3,286046998.6,N
1621327435.1,286047000.5,N
1621327455.9,286046998.6,N
1621327475.7,286046999.1,N
1621327495.5,286046998.0,N
1621327515.4,286046995.0,Y
1621327535.2,286046997.6,P
1621327555.1,286046996.6,P
1621327556.0,286046996.6,N
1621327575.8,286046996.9,N
1621327595.6,286046997.4,N
1621327615.5,286046997.1,N
1621327635